Manhattan, KS

4:47 PM CST on February 21, 2017 (GMT -0600)
Manhattan Regional

Weather History for KMHK - September, 2011

Change the Weather History Date:

Monday, September 19, 2011

  Actual Average Record
Temperature  
Mean Temperature 65 °F 66 °F  
Max Temperature 84 °F 80 °F 96 °F (1998)
Min Temperature 48 °F 53 °F 36 °F (2003)
Degree Days  
Heating Degree Days 0 3  
Month to date heating degree days 21  
Since 1 July heating degree days 24  
Cooling Degree Days 0 4  
Month to date cooling degree days 121  
Year to date cooling degree days 1304  
Growing Degree Days 15 (Base 50)    
Moisture  
Dew Point 50 °F    
Average Humidity 80    
Maximum Humidity 100    
Minimum Humidity 24    
Precipitation  
Precipitation 0.01 in 0.10 in 0.81 in (1996)
Month to date precipitation 2.20  
Year to date precipitation 26.74  
Sea Level Pressure  
Sea Level Pressure 30.08 in    
Wind  
Wind Speed 1 mph (SW)    
Max Wind Speed 10 mph    
Max Gust Speed -    
Visibility 4 miles    
Events Fog    
T = Trace of Precipitation, MM = Missing Value Source: NWS Daily Summary

Daily Weather History Graph

Daily Weather History Graph

Search for Another Location

Airport or City:

Trip Planner

Search our weather history database for the weather conditions in past years. The results will help you decide how hot, cold, wet, or windy it might be!

Date:

Astronomy

Sep. 19, 2011 Rise Set
Actual Time 7:11 AM CDT 7:28 PM CDT
Civil Twilight 6:44 AM CDT 7:55 PM CDT
Nautical Twilight 6:13 AM CDT 8:26 PM CDT
Astronomical Twilight 5:41 AM CDT 8:58 PM CDT
Moon 11:40 PM CDT (9/19) 1:59 PM CDT (9/19)
Length of Visible Light 13h 11m
Length of Day
12h 17m
Waning Gibbous, 58% of the Moon is Illuminated
Sep 19
Waning Gibbous
Sep 20
Last Quarter
Sep 27
New
Oct 3
First Quarter
Oct 11
Full

Hourly Weather History & Observations

Time (CDT) Temp. Dew Point Humidity Pressure Visibility Wind Dir Wind Speed Gust Speed Precip Events Conditions
12:52 AM 54.0 °F 52.0 °F 93% 30.05 in 5.0 mi Calm Calm - N/A   Clear
1:52 AM 52.0 °F 51.1 °F 97% 30.05 in 3.0 mi Calm Calm - N/A   Clear
1:56 AM 51.8 °F 50.0 °F 94% 30.06 in 2.0 mi Calm Calm - N/A   Partly Cloudy
2:02 AM 53.6 °F 51.8 °F 94% 30.06 in 1.0 mi Calm Calm - N/A   Mist
2:22 AM 53.6 °F 53.6 °F 100% 30.06 in 0.5 mi West 3.5 mph - N/A Fog Fog
2:29 AM 53.6 °F 51.8 °F 94% 30.06 in 0.2 mi WSW 3.5 mph - N/A Fog Fog
2:52 AM 52.0 °F 51.1 °F 97% 30.06 in 0.2 mi Calm Calm - N/A Fog Fog
3:00 AM 51.8 °F 51.8 °F 100% 30.06 in 0.5 mi Calm Calm - N/A Fog Fog
3:16 AM 51.8 °F 51.8 °F 100% 30.07 in 0.2 mi Calm Calm - N/A Fog Fog
3:31 AM 51.8 °F 51.8 °F 100% 30.08 in 0.5 mi Calm Calm - N/A Fog Fog
3:52 AM 52.0 °F 51.1 °F 97% 30.07 in 0.8 mi Calm Calm - N/A   Mist
4:21 AM 50.0 °F 48.2 °F 94% 30.07 in 0.2 mi Calm Calm - N/A Fog Fog
4:52 AM 51.1 °F 50.0 °F 96% 30.08 in 0.2 mi Calm Calm - N/A Fog Fog
5:17 AM 51.8 °F 50.0 °F 94% 30.09 in 0.5 mi WSW 3.5 mph - N/A Fog Fog
5:25 AM 51.8 °F 50.0 °F 94% 30.09 in 0.2 mi WSW 3.5 mph - N/A Fog Fog
5:34 AM 51.8 °F 51.8 °F 100% 30.09 in 0.5 mi Calm Calm - N/A Fog Fog
5:45 AM 51.8 °F 50.0 °F 94% 30.09 in 0.2 mi SW 3.5 mph - N/A Fog Fog
5:52 AM 51.8 °F 50.0 °F 94% 30.10 in 0.2 mi Calm Calm - N/A Fog Fog
6:15 AM 50.0 °F 48.2 °F 94% 30.10 in 0.5 mi Calm Calm - N/A Fog Fog
6:28 AM 50.0 °F 48.2 °F 94% 30.10 in 0.2 mi Calm Calm - N/A Fog Fog
6:52 AM 50.0 °F 48.9 °F 96% 30.11 in 0.2 mi Calm Calm - 0.01 in Fog Fog
7:22 AM 48.2 °F 48.2 °F 100% 30.12 in 0.5 mi Calm Calm - N/A Fog Fog
7:30 AM 48.2 °F 48.2 °F 100% 30.12 in 1.5 mi Calm Calm - N/A   Scattered Clouds
7:34 AM 48.2 °F 48.2 °F 100% 30.12 in 1.0 mi Calm Calm - N/A   Mist
7:42 AM 48.2 °F 46.4 °F 93% 30.12 in 4.0 mi Calm Calm - N/A   Clear
7:52 AM 50.0 °F 48.9 °F 96% 30.13 in 7.0 mi Calm Calm - N/A   Clear
8:31 AM 53.6 °F 51.8 °F 94% 30.14 in 3.0 mi SSW 3.5 mph - N/A   Partly Cloudy
8:34 AM 53.6 °F 53.6 °F 100% 30.14 in 1.8 mi SSW 3.5 mph - N/A   Partly Cloudy
8:44 AM 53.6 °F 53.6 °F 100% 30.14 in 7.0 mi Calm Calm - N/A   Partly Cloudy
8:52 AM 55.0 °F 54.0 °F 96% 30.14 in 9.0 mi Variable 3.5 mph - N/A   Partly Cloudy
9:52 AM 64.0 °F 55.0 °F 73% 30.14 in 10.0 mi West 3.5 mph - N/A   Clear
10:52 AM 71.1 °F 57.9 °F 63% 30.14 in 10.0 mi SSW 4.6 mph - N/A   Clear
11:52 AM 77.0 °F 52.0 °F 42% 30.12 in 10.0 mi Variable 4.6 mph - N/A   Clear
12:52 PM 80.1 °F 45.0 °F 29% 30.10 in 10.0 mi Variable 3.5 mph - N/A   Clear
1:52 PM 80.6 °F 42.8 °F 26% 30.10 in 10.0 mi West 6.9 mph - N/A   Clear
2:52 PM 82.9 °F 42.1 °F 24% 30.05 in 10.0 mi West 9.2 mph - N/A   Clear
3:52 PM 82.9 °F 44.1 °F 25% 30.02 in 10.0 mi WSW 10.4 mph - N/A   Clear
4:52 PM 82.9 °F 44.1 °F 25% 30.00 in 10.0 mi WSW 6.9 mph - N/A   Clear
5:52 PM 82.0 °F 45.0 °F 27% 29.99 in 10.0 mi SSW 4.6 mph - N/A   Clear
6:52 PM 75.9 °F 52.0 °F 43% 29.99 in 9.0 mi Calm Calm - N/A   Clear
7:52 PM 66.2 °F 53.6 °F 64% 30.00 in 10.0 mi Calm Calm - N/A   Clear
8:52 PM 63.0 °F 54.0 °F 72% 30.00 in 10.0 mi Calm Calm - N/A   Clear
9:52 PM 61.0 °F 53.1 °F 75% 30.00 in 10.0 mi SSW 3.5 mph - N/A   Clear
10:52 PM 61.0 °F 51.1 °F 70% 29.99 in 10.0 mi SSW 3.5 mph - N/A   Clear
11:52 PM 62.1 °F 50.0 °F 65% 29.97 in 10.0 mi South 4.6 mph - N/A   Clear